Regional Weather Roundup
Issued by NWS

Home | Current Version | Previous Version | Graphics & Text | Print | Product List | Glossary On
Versions: 1 2 3 4 5 6 7 8 9 10 11 12 13 14 15 16 17 18 19 20 21 22 23 24 25 26 27 28 29 30 31 32 33 34 35 36 37 38 39 40 41 42 43 44 45 46 47 48 49 50
144
ASUS45 KCYS 091910
RWRWY

WYOMING REGIONAL WEATHER ROUNDUP
NATIONAL WEATHER SERVICE CHEYENNE WY
1200 PM MST FRI DEC 09 2016

NOTE:  "FAIR" INDICATES FEW OR NO CLOUDS BELOW 12,000 FEET
WITH NO SIGNIFICANT WEATHER AND/OR OBSTRUCTIONS TO VISIBILITY.

WYZ001-092000-
YELLOWSTONE NATIONAL PARK

CITY           SKY/WX    TMP DP  RH WIND       PRES   REMARKS
LK YELLOWSTONE   N/A     23  20  88 VRB3      30.04F
W YELLOWSTONE  NOT AVBL

$$
WYZ002>013-054>058-071-098>099-092000-
NORTHERN WYOMING

CITY           SKY/WX    TMP DP  RH WIND       PRES   REMARKS
JACKSON        LGT SNOW  21  19  93 CALM      30.08F
CODY           FAIR      12  -1  56 SE3       30.12F
GREYBULL       PTSUNNY   14   0  53 CALM      30.21F
WORLAND        FAIR      10   3  73 CALM      30.19F
SHERIDAN       FAIR      10   0  63 CALM      30.23F
BUFFALO        FAIR       8   0  69 E6        30.14F WCI  -2
GILLETTE       PTSUNNY    6  -1  73 N6        30.19F WCI  -4
HULETT         MOCLDY     3  -4  72 CALM      30.23S
NEWCASTLE      FAIR      10   1  67 NW8       30.21F WCI  -1

$$
WYZ014>020-022>026-101>103-092000-
CENTRAL WYOMING

CITY           SKY/WX    TMP DP  RH WIND       PRES   REMARKS
BIG PINEY      PTSUNNY   14   9  80 SE3       30.14F
PINEDALE       LGT SNOW  18  12  79 MISG      30.15F
DUBOIS         SNOW      32  25  74 W12       30.00S VSB 1/2 WCI  23
LANDER         FAIR      15   2  56 CALM      30.08F
RIVERTON       FAIR      16   6  65 S3        30.09F
CASPER         FAIR       9   0  67 N3        30.11F
DOUGLAS        FAIR       8   0  69 W3        30.15F

$$
WYZ021-027>030-104>119-092000-
SOUTHERN WYOMING

CITY           SKY/WX    TMP DP  RH WIND       PRES   REMARKS
EVANSTON       FAIR      34  30  85 SW20      30.16F WCI  23
KEMMERER       LGT SNOW  34  32  93 SW20G26   30.14F VSB 1   WCI  22
FORT BRIDGER   MOCLDY    39  35  84 W17G23    30.17F WCI  30
ROCK SPRINGS   FAIR      35  29  78 W30G38    30.12F WCI  22
DIXON          CLOUDY    36  23  61 SW6       30.23F WCI  31
RAWLINS        PTSUNNY   35  24  64 SW26G38   30.09F WCI  22
SARATOGA       CLOUDY    34  25  69 SW18G24   30.14F WCI  23
LARAMIE        PTSUNNY   35  22  58 W18G28    30.08F WCI  24
CHEYENNE       FAIR      44  24  45 W21G30    30.05S
TORRINGTON     FAIR      22   8  55 N6        30.16S WCI  14
PINE BLUFFS    FAIR      30  19  64 N7        30.09F WCI  23

$$




USA.gov is the U.S. government's official web portal to all federal, state and local government web resources and services.